TimeEST,TemperatureF,Dew PointF,Humidity,Sea Level PressureIn,VisibilityMPH,Wind Direction,Wind SpeedMPH,Gust SpeedMPH,PrecipitationIn,Events,Conditions,WindDirDegrees,DateUTC
12:53 AM,41.0,14.0,33,30.09,10.0,WNW,10.4,-,N/A,,Clear,290,2012-01-29 05:53:00
1:53 AM,39.9,10.9,31,30.11,10.0,WNW,6.9,-,N/A,,Clear,290,2012-01-29 06:53:00
2:53 AM,37.9,10.0,32,30.12,10.0,NW,8.1,-,N/A,,Clear,310,2012-01-29 07:53:00
3:53 AM,36.0,10.9,36,30.13,10.0,WNW,3.5,-,N/A,,Clear,290,2012-01-29 08:53:00
4:53 AM,35.1,10.9,37,30.15,10.0,WNW,5.8,-,N/A,,Clear,290,2012-01-29 09:53:00
5:53 AM,35.1,10.0,35,30.16,10.0,NW,6.9,-,N/A,,Clear,310,2012-01-29 10:53:00
6:53 AM,33.1,12.0,42,30.17,10.0,West,3.5,-,N/A,,Clear,270,2012-01-29 11:53:00
7:53 AM,30.9,15.1,52,30.20,10.0,WSW,5.8,-,N/A,,Clear,240,2012-01-29 12:53:00
8:53 AM,36.0,15.1,43,30.20,10.0,WSW,6.9,-,N/A,,Clear,250,2012-01-29 13:53:00
9:53 AM,39.0,14.0,36,30.20,10.0,WNW,9.2,-,N/A,,Clear,290,2012-01-29 14:53:00
10:53 AM,41.0,15.1,35,30.19,10.0,West,11.5,-,N/A,,Clear,280,2012-01-29 15:53:00
11:53 AM,42.8,15.8,34,30.18,10.0,WNW,10.4,17.3,N/A,,Clear,290,2012-01-29 16:53:00
12:53 PM,45.0,17.1,33,30.14,10.0,West,10.4,-,N/A,,Clear,280,2012-01-29 17:53:00
1:53 PM,45.0,14.0,29,30.12,10.0,WNW,12.7,19.6,N/A,,Clear,290,2012-01-29 18:53:00
2:53 PM,46.9,14.0,27,30.09,10.0,West,8.1,-,N/A,,Clear,260,2012-01-29 19:53:00
3:53 PM,46.0,14.0,28,30.09,10.0,West,6.9,18.4,N/A,,Clear,270,2012-01-29 20:53:00
4:53 PM,43.0,18.0,37,30.08,10.0,SW,12.7,-,N/A,,Clear,230,2012-01-29 21:53:00
5:53 PM,41.0,18.0,40,30.08,10.0,SW,8.1,-,N/A,,Clear,230,2012-01-29 22:53:00
6:53 PM,39.9,17.1,40,30.09,10.0,SW,8.1,-,N/A,,Clear,230,2012-01-29 23:53:00
7:53 PM,39.0,17.1,41,30.08,10.0,SW,8.1,-,N/A,,Clear,220,2012-01-30 00:53:00
8:53 PM,37.9,17.1,43,30.06,10.0,SSW,5.8,-,N/A,,Clear,210,2012-01-30 01:53:00
9:53 PM,37.9,18.0,45,30.03,10.0,SW,9.2,-,N/A,,Clear,220,2012-01-30 02:53:00
10:53 PM,39.0,19.0,45,30.04,10.0,SW,9.2,-,N/A,,Overcast,230,2012-01-30 03:53:00
11:53 PM,42.1,19.0,40,30.05,10.0,WNW,11.5,16.1,N/A,,Overcast,290,2012-01-30 04:53:00